Stündliche Wetter Barmashove

Heute, 31 Oktober, Samstag

Zeit Temperatur Niederschläge Wind Luftdruck Luftfeuchtigkeit
00:00 +12°C° 0 mm 2 m/S 755 mmHg 74%
01:00 +12°C° 0 mm 2 m/S 755 mmHg 76%
02:00 +12°C° 0 mm 2 m/S 755 mmHg 77%
03:00 +12°C° 0 mm 2 m/S 755 mmHg 78%
04:00 +10°C° 0 mm 2 m/S 755 mmHg 79%
05:00 +10°C° 0 mm 2 m/S 755 mmHg 80%
06:00 +12°C° 0 mm 2 m/S 755 mmHg 79%
07:00 +12°C° 0 mm 2 m/S 754 mmHg 78%
08:00 +11°C° 0 mm 3 m/S 754 mmHg 77%
09:00 +11°C° 0 mm 3 m/S 754 mmHg 76%
10:00 +12°C° 0 mm 2 m/S 754 mmHg 75%
11:00 +13°C° 0 mm 2 m/S 754 mmHg 74%
12:00 +13°C° 0.1 mm 2 m/S 754 mmHg 73%
13:00 +12°C° 0.1 mm 3 m/S 754 mmHg 72%
14:00 +12°C° 0.1 mm 3 m/S 753 mmHg 71%
15:00 +12°C° 0.1 mm 3 m/S 753 mmHg 74%
16:00 +11°C° 0.1 mm 3 m/S 753 mmHg 77%
17:00 +11°C° 0.1 mm 3 m/S 753 mmHg 80%
18:00 +11°C° 0 mm 3 m/S 753 mmHg 81%
19:00 +11°C° 0 mm 3 m/S 753 mmHg 81%
20:00 +10°C° 0 mm 3 m/S 753 mmHg 82%
21:00 +10°C° 0 mm 3 m/S 753 mmHg 83%
22:00 +10°C° 0 mm 3 m/S 753 mmHg 85%
23:00 +10°C° 0 mm 3 m/S 753 mmHg 86%

Morgen, 1 November, Sonntag

Zeit Temperatur Niederschläge Wind Luftdruck Luftfeuchtigkeit
00:00 +9°C° 0.1 mm 3 m/S 753 mmHg 87%
01:00 +9°C° 0.1 mm 3 m/S 753 mmHg 88%
02:00 +9°C° 0.1 mm 3 m/S 753 mmHg 89%
03:00 +9°C° 0.1 mm 3 m/S 752 mmHg 89%
04:00 +9°C° 0.1 mm 3 m/S 752 mmHg 89%
05:00 +9°C° 0.1 mm 2 m/S 752 mmHg 89%
06:00 +9°C° 0 mm 2 m/S 752 mmHg 88%
07:00 +10°C° 0 mm 2 m/S 752 mmHg 87%
08:00 +10°C° 0 mm 2 m/S 752 mmHg 86%
09:00 +10°C° 0 mm 2 m/S 752 mmHg 84%
10:00 +12°C° 0 mm 2 m/S 752 mmHg 82%
11:00 +12°C° 0 mm 2 m/S 752 mmHg 79%
12:00 +12°C° 0.1 mm 2 m/S 752 mmHg 78%
13:00 +11°C° 0.1 mm 3 m/S 752 mmHg 77%
14:00 +12°C° 0.1 mm 3 m/S 752 mmHg 76%
15:00 +11°C° 0.4 mm 3 m/S 752 mmHg 80%
16:00 +10°C° 0.4 mm 3 m/S 752 mmHg 84%
17:00 +10°C° 0.4 mm 3 m/S 752 mmHg 88%
18:00 +10°C° 0.6 mm 3 m/S 752 mmHg 89%
19:00 +10°C° 0.6 mm 3 m/S 752 mmHg 89%
20:00 +9°C° 0.6 mm 3 m/S 752 mmHg 90%
21:00 +9°C° 0.1 mm 2 m/S 752 mmHg 89%
22:00 +9°C° 0.1 mm 2 m/S 752 mmHg 89%
23:00 +9°C° 0.1 mm 2 m/S 752 mmHg 88%

übermorgen, 2 November, Montag

Zeit Temperatur Niederschläge Wind Luftdruck Luftfeuchtigkeit
00:00 +9°C° 0.1 mm 2 m/S 752 mmHg 89%
01:00 +9°C° 0.1 mm 2 m/S 752 mmHg 89%
02:00 +9°C° 0.1 mm 2 m/S 753 mmHg 90%
03:00 +9°C° 0 mm 2 m/S 753 mmHg 91%
04:00 +8°C° 0 mm 2 m/S 753 mmHg 92%
05:00 +8°C° 0 mm 2 m/S 753 mmHg 93%
06:00 +8°C° 0.1 mm 3 m/S 754 mmHg 92%
07:00 +9°C° 0.1 mm 3 m/S 754 mmHg 90%
08:00 +8°C° 0.1 mm 4 m/S 755 mmHg 89%
09:00 +10°C° 0.1 mm 4 m/S 755 mmHg 87%
10:00 +9°C° 0.1 mm 5 m/S 755 mmHg 85%
11:00 +10°C° 0.1 mm 5 m/S 756 mmHg 82%
12:00 +11°C° 0 mm 6 m/S 756 mmHg 78%
13:00 +11°C° 0 mm 6 m/S 756 mmHg 73%
14:00 +12°C° 0 mm 7 m/S 757 mmHg 69%
15:00 +13°C° 0 mm 6 m/S 757 mmHg 71%
16:00 +12°C° 0 mm 5 m/S 757 mmHg 74%
17:00 +11°C° 0 mm 4 m/S 757 mmHg 77%
18:00 +11°C° 0 mm 4 m/S 758 mmHg 80%
19:00 +10°C° 0 mm 3 m/S 758 mmHg 82%
20:00 +10°C° 0 mm 3 m/S 759 mmHg 85%
21:00 +10°C° 0 mm 3 m/S 759 mmHg 84%
22:00 +10°C° 0 mm 3 m/S 759 mmHg 83%
23:00 +10°C° 0 mm 3 m/S 759 mmHg 82%

3 November, Dienstag

Zeit Temperatur Niederschläge Wind Luftdruck Luftfeuchtigkeit
00:00 +10°C° 0 mm 3 m/S 759 mmHg 84%
01:00 +9°C° 0 mm 2 m/S 759 mmHg 86%
02:00 +9°C° 0 mm 2 m/S 759 mmHg 87%
03:00 +9°C° 0 mm 2 m/S 759 mmHg 88%
04:00 +8°C° 0 mm 2 m/S 759 mmHg 89%
05:00 +8°C° 0 mm 2 m/S 760 mmHg 90%
06:00 +8°C° 0 mm 2 m/S 760 mmHg 88%
07:00 +8°C° 0 mm 2 m/S 760 mmHg 85%
08:00 +8°C° 0 mm 2 m/S 760 mmHg 83%
09:00 +9°C° 0 mm 2 m/S 760 mmHg 77%
10:00 +10°C° 0 mm 2 m/S 760 mmHg 72%
11:00 +12°C° 0 mm 2 m/S 761 mmHg 66%
12:00 +12°C° 0 mm 2 m/S 761 mmHg 65%
13:00 +12°C° 0 mm 2 m/S 761 mmHg 64%
14:00 +13°C° 0 mm 2 m/S 761 mmHg 63%
15:00 +12°C° 0 mm 2 m/S 761 mmHg 65%
16:00 +12°C° 0 mm 2 m/S 761 mmHg 68%
17:00 +12°C° 0 mm 1 m/S 761 mmHg 70%
18:00 +11°C° 0 mm 1 m/S 761 mmHg 71%
19:00 +10°C° 0 mm 2 m/S 761 mmHg 72%
20:00 +10°C° 0 mm 2 m/S 761 mmHg 73%
21:00 +9°C° 0 mm 2 m/S 761 mmHg 74%
22:00 +9°C° 0 mm 2 m/S 762 mmHg 76%
23:00 +9°C° 0 mm 2 m/S 762 mmHg 77%

4 November, Mittwoch

Zeit Temperatur Niederschläge Wind Luftdruck Luftfeuchtigkeit
00:00 +8°C° 0 mm 2 m/S 762 mmHg 77%
01:00 +8°C° 0 mm 2 m/S 762 mmHg 78%
02:00 +8°C° 0 mm 2 m/S 762 mmHg 78%
03:00 +8°C° 0 mm 2 m/S 762 mmHg 80%
04:00 +8°C° 0 mm 2 m/S 762 mmHg 81%
05:00 +8°C° 0 mm 2 m/S 762 mmHg 83%
06:00 +8°C° 0 mm 2 m/S 762 mmHg 82%
07:00 +8°C° 0 mm 2 m/S 762 mmHg 82%
08:00 +9°C° 0 mm 2 m/S 763 mmHg 81%
09:00 +10°C° 0 mm 2 m/S 763 mmHg 73%
10:00 +12°C° 0 mm 2 m/S 763 mmHg 66%
11:00 +13°C° 0 mm 3 m/S 763 mmHg 58%
12:00 +13°C° 0 mm 3 m/S 763 mmHg 57%
13:00 +13°C° 0 mm 3 m/S 763 mmHg 55%
14:00 +14°C° 0 mm 3 m/S 763 mmHg 54%
15:00 +14°C° 0 mm 2 m/S 763 mmHg 56%
16:00 +14°C° 0 mm 2 m/S 763 mmHg 58%
17:00 +13°C° 0 mm 2 m/S 763 mmHg 60%
18:00 +13°C° 0 mm 2 m/S 763 mmHg 61%
19:00 +13°C° 0 mm 2 m/S 764 mmHg 62%
20:00 +12°C° 0 mm 2 m/S 764 mmHg 64%
21:00 +12°C° 0 mm 2 m/S 764 mmHg 65%
22:00 +12°C° 0 mm 2 m/S 764 mmHg 66%
23:00 +12°C° 0 mm 2 m/S 764 mmHg 67%

5 November, Donnerstag

Zeit Temperatur Niederschläge Wind Luftdruck Luftfeuchtigkeit
00:00 +11°C° 0 mm 3 m/S 764 mmHg 67%
01:00 +11°C° 0 mm 3 m/S 764 mmHg 68%
02:00 +11°C° 0 mm 3 m/S 765 mmHg 69%
03:00 +10°C° 0 mm 3 m/S 765 mmHg 75%
04:00 +9°C° 0 mm 3 m/S 765 mmHg 81%
05:00 +8°C° 0 mm 3 m/S 765 mmHg 87%
06:00 +8°C° 0 mm 3 m/S 765 mmHg 86%
07:00 +8°C° 0 mm 3 m/S 766 mmHg 85%
08:00 +9°C° 0 mm 3 m/S 766 mmHg 84%
09:00 +10°C° 0 mm 4 m/S 766 mmHg 76%
10:00 +12°C° 0 mm 4 m/S 766 mmHg 69%
11:00 +13°C° 0 mm 4 m/S 766 mmHg 61%
12:00 +14°C° 0 mm 4 m/S 766 mmHg 59%
13:00 +14°C° 0 mm 4 m/S 765 mmHg 56%
14:00 +14°C° 0 mm 4 m/S 765 mmHg 54%
15:00 +13°C° 0 mm 3 m/S 765 mmHg 58%
16:00 +12°C° 0 mm 3 m/S 765 mmHg 63%
17:00 +11°C° 0 mm 3 m/S 765 mmHg 68%
18:00 +10°C° 0 mm 3 m/S 765 mmHg 71%
19:00 +10°C° 0 mm 3 m/S 765 mmHg 74%
20:00 +9°C° 0 mm 3 m/S 766 mmHg 78%
21:00 +9°C° 0 mm 3 m/S 766 mmHg 80%
22:00 +8°C° 0 mm 3 m/S 766 mmHg 82%
23:00 +8°C° 0 mm 3 m/S 766 mmHg 84%
Mehr zeigen